Harvard, Illinois, United States (60033)
Lat: 42.42N, Lon: 88.61W
Wx Zone: ILZ005
Local Info
Past Weather Observations for Today

NOTE: This archive is for the closest National Weather Service station to Harvard. Information may differ from the station used for current weather conditions.

Click here for Long-term Archive

Time Weather Temperature Dewpoint Humidity Pressure Winds Precip Visibility
14:55
Clear
72°F / 22°C 54°F / 12°C 53% 30.12 in
(1020 mb)
SW 4.6 mph
(SW 7 kph)
- 10SM
14:35
Partly Cloudy
72°F / 22°C 54°F / 12°C 53% 30.12 in
(1020 mb)
S 3.5 mph
(S 6 kph)
- 10SM
14:15
Mostly Cloudy
72°F / 22°C 52°F / 11°C 50% 30.15 in
(1021 mb)
SW 5.8 mph
(SW 9 kph)
- 10SM
13:55
Mostly Cloudy
72°F / 22°C 54°F / 12°C 53% 30.15 in
(1021 mb)
SW 5.8 mph
(SW 9 kph)
- 10SM
13:35
Clear
70°F / 21°C 54°F / 12°C 57% 30.15 in
(1021 mb)
Calm - 10SM
13:15
Partly Cloudy
72°F / 22°C 54°F / 12°C 53% 30.15 in
(1021 mb)
S 4.6 mph
(S 7 kph)
- 10SM
12:55
Partly Cloudy
72°F / 22°C 54°F / 12°C 53% 30.18 in
(1022 mb)
SW 3.5 mph
(SW 6 kph)
- 10SM
12:35
Mostly Cloudy
72°F / 22°C 54°F / 12°C 53% 30.18 in
(1022 mb)
SSE 4.6 mph
(SSE 7 kph)
- 10SM
12:15
Partly Cloudy
70°F / 21°C 54°F / 12°C 57% 30.18 in
(1022 mb)
S 5.8 mph
(S 9 kph)
- 10SM
11:55
Mostly Cloudy
70°F / 21°C 54°F / 12°C 57% 30.18 in
(1022 mb)
S 5.8 mph
(S 9 kph)
- 10SM
11:35
Partly Cloudy
68°F / 20°C 54°F / 12°C 60% 30.18 in
(1022 mb)
S 5.8 mph
(S 9 kph)
- 10SM
11:15
Partly Cloudy
68°F / 20°C 54°F / 12°C 60% 30.18 in
(1022 mb)
Calm - 10SM
10:55
Partly Cloudy
68°F / 20°C 54°F / 12°C 60% 30.18 in
(1022 mb)
SW 3.5 mph
(SW 6 kph)
- 10SM
10:35
Mostly Cloudy
68°F / 20°C 55°F / 13°C 64% 30.18 in
(1022 mb)
SW 3.5 mph
(SW 6 kph)
- 10SM
10:15
Partly Cloudy
68°F / 20°C 54°F / 12°C 60% 30.18 in
(1022 mb)
SSE 4.6 mph
(SSE 7 kph)
- 10SM
09:55
Clear
68°F / 20°C 54°F / 12°C 60% 30.18 in
(1022 mb)
SE 3.5 mph
(SE 6 kph)
- 10SM
09:35
Clear
66°F / 19°C 54°F / 12°C 64% 30.18 in
(1022 mb)
SE 5.8 mph
(SE 9 kph)
- 10SM
09:15
Clear
66°F / 19°C 55°F / 13°C 68% 30.18 in
(1022 mb)
Calm - 10SM
08:55
Clear
64°F / 18°C 55°F / 13°C 73% 30.18 in
(1022 mb)
Calm - 10SM
08:35
Clear
63°F / 17°C 55°F / 13°C 77% 30.18 in
(1022 mb)
Calm - 10SM
08:15
Clear
61°F / 16°C 54°F / 12°C 77% 30.18 in
(1022 mb)
Calm - 10SM
07:55
Clear
59°F / 15°C 54°F / 12°C 82% 30.18 in
(1022 mb)
Calm - 10SM
07:35
Clear
57°F / 14°C 54°F / 12°C 88% 30.21 in
(1023 mb)
Calm - 10SM
07:15
Clear
55°F / 13°C 55°F / 13°C 100% 30.21 in
(1023 mb)
Calm - 10SM
06:55
Clear
52°F / 11°C 52°F / 11°C 100% 30.21 in
(1023 mb)
Calm - 10SM
06:35
Clear
50°F / 10°C 50°F / 10°C 100% 30.21 in
(1023 mb)
Calm - 7SM
06:15
Clear
48°F / 9°C 48°F / 9°C 100% 30.21 in
(1023 mb)
Calm - 10SM
05:55
Clear
45°F / 7°C 45°F / 7°C 100% 30.21 in
(1023 mb)
Calm - 7SM
05:35
Clear
Fog And Mist
45°F / 7°C 43°F / 6°C 93% 30.21 in
(1023 mb)
Calm - 4SM
05:15
Clear
Fog And Mist
43°F / 6°C 43°F / 6°C 100% 30.21 in
(1023 mb)
Calm - 5SM
04:55
Clear
Fog And Mist
43°F / 6°C 43°F / 6°C 100% 30.21 in
(1023 mb)
Calm - 3SM
04:35
Obscured
Fog And Mist
43°F / 6°C 43°F / 6°C 100% 30.18 in
(1022 mb)
Calm - 1SM
04:15
Obscured
Fog And Mist
45°F / 7°C 45°F / 7°C 100% 30.18 in
(1022 mb)
Calm - 1 3/4SM
03:55
Obscured
Fog And Mist
43°F / 6°C 43°F / 6°C 100% 30.18 in
(1022 mb)
Calm - 3/4SM
03:35
Clear
Fog And Mist
45°F / 7°C 43°F / 6°C 93% 30.15 in
(1021 mb)
Calm - 4SM
03:15
Clear
Fog And Mist
45°F / 7°C 45°F / 7°C 100% 30.18 in
(1022 mb)
Calm - 3SM
02:55
Clear
Fog And Mist
45°F / 7°C 45°F / 7°C 100% 30.18 in
(1022 mb)
Calm - 5SM
02:35
Clear
Fog And Mist
45°F / 7°C 43°F / 6°C 93% 30.18 in
(1022 mb)
Calm - 4SM
02:15
Clear
Fog And Mist
45°F / 7°C 45°F / 7°C 100% 30.18 in
(1022 mb)
Calm - 4SM
01:55
Clear
Fog And Mist
45°F / 7°C 45°F / 7°C 100% 30.15 in
(1021 mb)
Calm - 5SM
01:35
Clear
45°F / 7°C 45°F / 7°C 100% 30.15 in
(1021 mb)
Calm - 7SM
01:15
Obscured
Fog
45°F / 7°C 45°F / 7°C 100% 30.18 in
(1022 mb)
Calm - 1/2SM
00:55
Obscured
Fog
45°F / 7°C 45°F / 7°C 100% 30.15 in
(1021 mb)
Calm - 1/2SM
00:35
Clear
Fog And Mist
46°F / 8°C 45°F / 7°C 93% 30.15 in
(1021 mb)
Calm - 4SM
00:15
Clear
Fog And Mist
46°F / 8°C 46°F / 8°C 100% 30.15 in
(1021 mb)
Calm - 5SM
Time Weather Temperature Dewpoint Humidity Pressure Winds Precip Visibility


Weather for websites

WeatherForYou.com, LLC is not responsible for any damages or problems caused by this service. Current weather conditions are obtained from the closest station including government and personal stations which may have varying degrees of accuracy. Weather forecasts are derived from the NOAA NDFD. Like all things, this site belongs to Jesus Christ... He just trusts us to maintain it. If you have any questions or comments email webmaster@weatherforyou.com

Copyright © 2015, WeatherForYou.com LLC. All rights reserved.